Regional Weather Roundup
Issued by NWS

Home | Current Version | Previous Version | Graphics & Text | Print | Product List | Glossary Off
Versions: 1 2 3 4 5 6 7 8 9 10 11 12 13 14 15 16 17 18 19 20 21 22 23 24 25 26 27 28 29 30 31 32 33 34 35 36 37 38 39 40 41 42 43 44 45 46 47 48 49 50

000
ASUS43 KBIS 291410
RWRND

NORTH DAKOTA REGIONAL WEATHER ROUNDUP
NATIONAL WEATHER SERVICE BISMARCK ND
900 AM CDT FRI JUL 29 2016

NOTE: "FAIR" INDICATES FEW OR NO CLOUDS BELOW 12,000 FEET WITH NO
SIGNIFICANT WEATHER AND/OR OBSTRUCTIONS TO VISIBILITY.


NDZ001>003-009>011-017-291500-
NORTHWEST NORTH DAKOTA

CITY           SKY/WX    TMP DP  RH WIND       PRES   REMARKS
WILLISTON      SUNNY     63  56  78 CALM      30.10S
MINOT          CLOUDY    66  58  75 CALM      30.10R
MINOT AFB      MOSUNNY   64  56  76 SE2       30.09S
$$

NDZ018>021-031>035-040>046-291500-
SOUTHWEST NORTH DAKOTA

CITY           SKY/WX    TMP DP  RH WIND       PRES   REMARKS
BISMARCK       SUNNY     69  62  78 CALM      30.10S
DICKINSON      CLOUDY    61  58  90 S5        30.11S
GARRISON         N/A     65  63  93 SE3       30.10S
HETTINGER ARPT SUNNY     65  56  72 VRB3      30.13S
$$

NDZ004>008-012>016-024-026-027-054-291500-
NORTHEAST NORTH DAKOTA

CITY           SKY/WX    TMP DP  RH WIND       PRES   REMARKS
GRAND FORKS    MOSUNNY   66  58  75 NW5       30.09S
GRND FRKS AFB  SUNNY     66  58  76 N3        30.10S
DEVILS LAKE    SUNNY     66  58  75 VRB3      30.12S
$$

NDZ022-023-025-028>030-036>039-047>053-291500-
SOUTHEAST NORTH DAKOTA

CITY           SKY/WX    TMP DP  RH WIND       PRES   REMARKS
FARGO          SUNNY     68  59  73 CALM      30.08S
JAMESTOWN      MOSUNNY   66  59  78 S3        30.10S
$$





USA.gov is the U.S. government's official web portal to all federal, state and local government web resources and services.